Regional Weather Roundup
Issued by NWS Little Rock, AR

Home | Current Version | Previous Version | Graphics & Text | Print | Product List | Glossary On
Versions: 1 2 3 4 5 6 7 8 9 10 11 12 13 14 15 16 17 18 19 20 21 22 23 24 25 26 27
000
ASUS44 KLZK 222005
RWRLZK

WEATHER ROUNDUP FOR ARKANSAS
NATIONAL WEATHER SERVICE LITTLE ROCK AR
300 PM CDT MON AUG 22 2016

NOTE: "FAIR" INDICATES FEW OR NO CLOUDS BELOW 12,000 FEET WITH NO
SIGNIFICANT WEATHER AND/OR OBSTRUCTIONS TO VISIBILITY.

ARZ001-003-010-029-222100-
NORTHWEST ARKANSAS

CITY           SKY/WX    TMP DP  RH WIND       PRES   REMARKS
FAYETTEVILLE   PTSUNNY   81  63  54 S8        30.13F
FORT SMITH     CLOUDY    82  62  50 SE9       30.11F
HARRISON       MOSUNNY   80  62  54 SE12      30.16F
BENTONVILLE    MOSUNNY   82  57  42 SE8       30.14F
ROGERS         SUNNY     83  60  45 E9G16     30.14F
SILOAM SPGS    MOSUNNY   84  57  39 S10       30.14F
HIGHFILL       MOSUNNY   84  60  44 VRB3      30.13F
SPRINGDALE     MOSUNNY   82  61  47 S6        30.15F
$$

ARZ004-005-016-222100-
NORTH CENTRAL ARKANSAS

CITY           SKY/WX    TMP DP  RH WIND       PRES   REMARKS
BATESVILLE     MOSUNNY   84  63  48 SE5       30.15F HX  85
FLIPPIN        MOSUNNY   81  59  47 S6        30.13F
MTN HOME       SUNNY     80  61  52 VRB7      30.15F
$$

ARZ040-041-222100-
WEST CENTRAL ARKANSAS

CITY           SKY/WX    TMP DP  RH WIND       PRES   REMARKS
MENA           CLOUDY    77  72  83 E5        30.15
MOUNT IDA      CLOUDY    80  67  64 VRB3      30.12F
$$

ARZ009-017-025-026-028-222100-
NORTHEAST ARKANSAS

CITY           SKY/WX    TMP DP  RH WIND       PRES   REMARKS
CORNING          N/A     82  63  51 E7        30.16F
JONESBORO      SUNNY     83  60  45 CALM      30.14F
NEWPORT        PTSUNNY   84  66  54 E8        30.14F HX  86
WALNUT RIDGE   SUNNY     82  57  42 E6        30.14F
BLYTHEVILLE    SUNNY     83  62  49 SE3       30.15F
NW BLYTHEVILLE MOSUNNY   82  59  44 E7        30.15F
$$

ARZ022-023-033-042-044-222100-
CENTRAL ARKANSAS

CITY           SKY/WX    TMP DP  RH WIND       PRES   REMARKS
LITTLE ROCK    PTSUNNY   85  67  54 SE7       30.12F HX  87
N LITTLE ROCK    N/A     84  70  63 E7        30.10F HX  88
JACKSONVILLE   MOSUNNY   84  70  62 VRB7      30.12F HX  88
SEARCY         MOSUNNY   85  67  54 SE5       30.15F HX  87
HOT SPRINGS    CLOUDY    80  68  66 SE8       30.13F
RUSSELLVILLE   CLOUDY    81  64  56 CALM      30.13F
$$

ARZ036-222100-
EAST ARKANSAS

CITY           SKY/WX    TMP DP  RH WIND       PRES   REMARKS
WEST MEMPHIS   SUNNY     83  66  56 SE7       30.12F HX  85
$$

ARZ050-053-066-070-073-222100-
SOUTHWEST ARKANSAS

CITY           SKY/WX    TMP DP  RH WIND       PRES   REMARKS
ARKADELPHIA    CLOUDY    78  73  84 VRB6      30.12F
CAMDEN         CLOUDY    77  70  78 E3        30.12F
TEXARKANA      CLOUDY    78  74  87 NE5       30.10F
EL DORADO      CLOUDY    80  74  81 CALM      30.11F HX  85
DE QUEEN       CLOUDY    78  74  87 E5        30.09F
$$

ARZ056-057-069-222100-
SOUTHEAST ARKANSAS

CITY           SKY/WX    TMP DP  RH WIND       PRES   REMARKS
PINE BLUFF     CLOUDY    80  72  76 SE6       30.13F
STUTTGART      CLOUDY    81  66  61 NE7       30.13F
MONTICELLO     CLOUDY    80  72  76 E5        30.12F

$$






USA.gov is the U.S. government's official web portal to all federal, state and local government web resources and services.